Lid_Strength_Index
2 2 2 2 3 3 3 2 2 2 2 1 0 0 0 0 0 2 5 3 2 -0 1 5 6 8 8 11 10 11 13 14 12 12 11 10 11 9 9 9 8 7 6 3 2
1 2 2 1 3 3 3 2 2 2 1 2 1 1 1 1 3 5 1 -0 -1 -1 4 7 8 6 9 11 11 12 14 13 10 10 10 10 11 10 10 9 7 7 3 3 2
1 1 1 1 2 3 3 2 2 2 1 1 1 1 1 1 6 6 -0 -1 -1 -1 4 6 5 4 6 9 10 12 14 11 11 9 10 10 11 10 10 10 9 8 5 4 3
1 1 1 1 2 2 2 1 2 2 2 1 1 1 1 3 10 3 -1 -1 -1 0 5 6 5 6 7 9 8 14 12 12 11 10 10 10 10 11 10 9 8 8 8 3 4
1 1 1 2 2 3 2 1 2 2 2 2 1 1 3 7 7 4 -1 -1 0 2 6 6 7 7 9 9 12 12 12 10 11 11 10 10 11 11 10 9 8 8 8 7 3
1 1 1 2 2 3 2 1 2 2 2 2 2 2 5 9 4 1 -0 0 1 4 6 5 6 6 9 11 12 11 12 12 12 11 11 12 11 11 10 9 8 8 8 8 7
2 2 2 3 3 3 3 2 2 2 2 2 1 4 6 8 3 0 1 1 1 4 6 4 4 5 8 11 9 10 12 13 12 11 12 11 13 12 10 9 9 8 8 8 7
1 2 2 3 3 4 4 2 1 2 2 2 1 4 7 3 2 2 2 2 3 3 5 4 4 5 7 8 10 12 12 14 11 12 10 11 14 11 10 10 9 9 8 8 7
1 1 2 3 3 4 3 2 2 2 2 1 3 5 7 1 3 2 2 4 5 4 4 4 5 6 7 9 12 12 14 12 11 10 10 10 12 9 9 9 8 7 7 7 7
1 1 1 3 3 4 4 3 2 1 2 3 3 7 5 5 2 3 3 4 5 6 7 6 7 8 9 10 14 13 12 11 10 9 8 10 9 8 7 8 7 6 6 6 6
1 1 1 1 3 3 5 5 5 6 5 7 6 6 4 3 2 3 4 5 5 7 9 8 10 11 9 8 8 9 10 11 10 8 9 9 9 7 7 7 6 6 6 5 5
1 1 1 1 2 3 5 8 5 5 7 5 5 5 4 4 6 5 4 6 7 10 8 9 10 7 7 8 8 9 10 10 9 9 9 9 9 7 7 7 6 6 5 5 4
1 1 1 1 1 4 7 8 3 4 7 6 5 7 6 4 5 6 5 6 8 9 8 10 8 7 8 9 9 9 10 10 10 9 9 10 10 9 7 7 6 6 4 4 4
2 2 1 2 5 5 8 6 4 3 10 9 7 5 4 4 6 5 4 5 8 9 9 8 8 8 9 9 9 11 8 9 9 10 12 10 13 10 8 7 7 5 5 5 4
1 2 2 3 5 6 6 5 5 6 18 8 7 2 4 5 6 7 4 5 8 9 9 10 9 9 10 9 8 10 8 9 9 10 11 11 12 10 10 9 7 6 5 5 4
2 2 3 5 4 4 5 5 7 12 18 10 7 7 7 6 6 7 6 4 5 8 8 8 7 7 8 8 8 7 9 10 10 11 13 11 11 11 10 9 8 6 5 5 4
2 2 4 4 6 4 5 7 12 17 9 11 10 7 7 8 8 8 8 8 9 11 11 9 9 7 7 8 7 8 10 13 14 14 14 11 12 10 9 8 7 7 6 4 4
3 3 4 4 4 4 6 9 16 12 12 8 9 8 9 8 8 9 9 9 8 8 10 11 12 8 7 7 9 9 9 12 16 15 13 11 13 11 8 6 6 5 5 4 4
3 4 4 4 4 4 7 13 13 12 10 11 9 11 10 8 8 9 9 9 8 7 11 11 12 8 7 7 7 10 11 9 13 13 14 11 11 9 8 7 6 6 6 5 4
5 5 3 2 4 4 8 12 11 9 9 9 12 10 13 10 10 10 10 8 9 7 6 9 13 9 8 7 7 9 8 13 12 18 18 14 13 11 11 9 7 7 7 7 6
6 5 3 2 3 5 12 10 9 7 8 10 10 11 10 11 10 11 11 9 7 8 8 9 10 11 9 10 11 10 11 11 11 12 16 16 13 9 9 8 8 7 6 6 5
7 9 3 3 8 8 10 9 8 8 6 8 8 9 10 10 11 11 11 9 7 7 9 9 10 13 12 10 9 10 11 11 15 15 14 15 14 8 7 7 7 7 6 5 5
7 8 2 2 11 11 9 9 8 8 8 8 9 8 8 9 12 10 10 8 7 7 9 8 11 14 14 11 9 10 10 10 11 12 15 16 13 7 7 7 6 7 6 6 5
7 10 6 5 6 9 11 11 10 7 9 9 9 7 9 10 9 10 10 8 7 7 7 7 11 12 15 12 11 12 11 10 11 15 13 14 11 9 8 7 6 5 5 5 5
5 8 8 10 8 9 9 10 9 10 7 7 8 8 9 11 10 11 9 8 8 8 9 8 12 11 11 10 10 11 11 10 12 11 13 11 11 9 7 6 6 5 5 6 6
7 8 7 8 7 8 9 10 9 9 8 9 9 9 8 10 9 11 9 9 9 8 8 8 12 11 12 11 11 12 10 10 10 10 10 10 11 7 6 5 6 6 6 6 6
4 4 7 8 8 9 9 8 10 8 8 8 7 8 9 9 7 7 7 7 7 8 10 10 11 12 14 11 12 13 11 10 10 9 9 12 9 6 7 7 6 6 5 5 5